Regional Weather Roundup
Issued by NWS Newport/Morehead, NC

Current Version | Previous Version | Graphics & Text | Print | Product List | Glossary On
Versions: 1 2 3 4 5 6 7 8 9 10 11 12 13 14 15 16 17 18 19 20 21 22 23 24 25 26 27 28 29 30 31 32 33 34 35 36 37 38 39 40 41 42 43 44 45 46 47 48 49 50
000
ASUS42 KMHX 190325
RWRMHX
WEATHER ROUNDUP FOR EASTERN NORTH CAROLINA
NATIONAL WEATHER SERVICE NEWPORT/MOREHEAD CITY NC
1000 PM EST SAT NOV 18 2017

NOTE: "FAIR" INDICATES FEW OR NO CLOUDS BELOW 12,000 FEET
WITH NO SIGNIFICANT WEATHER AND/OR OBSTRUCTIONS TO VISIBILITY

NCZ015>017-031-032-045>047-102-103-190400-
NORTH COAST

CITY           SKY/WX    TMP DP  RH WIND       PRES   REMARKS
EDENTON        PTCLDY    64  57  79 S15       29.72F
ELIZABETH CITY PTCLDY    65  59  81 S15G28    29.71F
KITTY HAWK     CLOUDY    63  56  78 SW8G16    29.73F
MANTEO         CLOUDY    62  57  83 SW18      29.75F

$$

NCZ045>047-081-094-103-104-190400-
CENTRAL COAST

CITY           SKY/WX    TMP DP  RH WIND       PRES   REMARKS
FRISCO         CLOUDY    67  62  84 SW14      29.78F

$$

NCZ095-097-098-100-101-190400-
SOUTHERN COAST

CITY           SKY/WX    TMP DP  RH WIND       PRES   REMARKS
BEAUFORT       PTCLDY    66  59  78 SW17      29.79F
CEDAR ISLAND   NOT AVBL
JACKSONVILLE   NOT AVBL
PINEY ISLAND   NOT AVBL
WILMINGTON     CLOUDY    67  55  65 SW17G24   29.79F


$$

NCZ011>013-027>030-043-044-078>080-089-090>093-098-190400-
COASTAL PLAIN

CITY           SKY/WX    TMP DP  RH WIND       PRES   REMARKS
AHOSKIE        MOCLDY    61  56  82 S9G16     29.68F
CLINTON        CLOUDY    64  56  76 S7        29.75S
ELIZABETHTOWN  NOT AVBL
GOLDSBORO      PTCLDY    64  55  73 S12G17    29.71F
GREENVILLE     PTCLDY    64  54  68 SW14G23   29.74F
HAVELOCK       NOT AVBL
KENANSVILLE    PTCLDY    64  54  68 SW6       29.75F
KINSTON        NOT AVBL
NEW BERN       CLOUDY    64  56  75 SW14G22   29.77F
RICHLANDS      CLOUDY    65  55  70 SW16G22   29.77F
ROCKY MOUNT    PTCLDY    64  56  75 S14G25    29.69F
WASHINGTON     CLOUDY    66  54  66 SW13G18   29.73F
WHITEVILLE     CLOUDY    64  54  69 S12       29.77F

$$

AMZ130-135-150-152-154-156-158-170-250-252-270-ANZ085-086-088-633-658-670-190400-
MARINE OBSERVATIONS

STATION/POSITION TIME  TEMP    WIND        PRES    WAVE   SWELL
                       AIR SEA DIR/SP/G            HT/PER HT/PER
                 (UTC) (F)     (DEG/KT/KT) (MB)    (FT/S) (FT/S)
CHESAPEAKE LIGHT NOT AVBL
64 E VA BEACH    0250   65 62  200/ 23/ 27 1006.4    5/ 5   2/ 9
DUCK             NOT AVBL
2 E DUCK         0300      61                N/A     2/11
OREGON INLET     NOT AVBL
13E OREGON INLT  0248      60                N/A     4/ 5   2/11
HATTERAS CG      NOT AVBL
DIAMOND BUOY     0310   72 66  200/ 29/ 37 1008.4
CAPE LOOKOUT     0300          230/ 12/ 17 1009.2
BEAUFORT LAB     NOT AVBL
30 SE NEW RVR IN 0308   70 70  230/ 17/ 23 1009.1
30 SE NEW RVR IN 0300      70                N/A     6/ 6
27 SE WRIGHTSVLE 0308   69 67  220/ 17/ 25 1009.3
5 SE WRIGHTSVLE  0308   66 64  230/ 12/ 17 1009.0
225 S CAPE HAT   0250   72 76  200/ 14/ 16 1014.5    4/ 8   3/ 8
41 SE CHARLESTON 0310   74 75  220/ 23/ 31 1010.4

$$




USA.gov is the U.S. government's official web portal to all federal, state and local government web resources and services.